Temperature
4 5 5 5 6 6 5 5 5 5 6 7 7 6 7 7 7 7 6 6 6 6 5 5 5 5 5 5 5 4 4 4 5 4 4 5 5 5 5 5 5 5 5 5
4 5 5 5 6 6 6 6 5 6 6 7 7 7 7 7 7 6 6 6 6 6 6 5 5 5 5 5 5 5 5 5 4 4 4 4 5 5 4 5 4 4 4 4
3 4 5 5 6 6 6 6 6 6 7 7 6 6 7 7 7 7 7 7 7 6 6 5 5 5 5 5 5 4 4 4 4 4 4 4 4 4 4 4 4 4 4 3
3 4 5 7 7 6 6 7 6 6 6 6 7 8 8 8 8 8 7 7 7 7 6 6 5 5 5 5 5 4 4 4 4 4 4 4 4 4 4 3 3 3 3 3
3 3 4 6 7 7 6 6 7 7 7 7 8 7 7 8 8 8 8 7 7 7 6 6 5 5 5 5 5 4 4 4 4 4 4 4 3 3 3 3 3 3 3 3
3 4 5 7 8 8 7 7 7 7 6 7 6 5 6 9 8 8 8 7 7 7 6 6 6 5 5 5 4 4 4 4 4 3 3 3 3 3 2 2 2 2 2 2
3 3 4 5 7 7 7 8 9 8 8 7 6 7 8 8 8 8 7 7 7 6 6 6 5 5 5 5 5 4 4 4 3 3 3 3 2 2 2 2 2 2 2 2
2 3 4 6 6 6 7 8 9 9 9 8 8 8 8 8 8 7 7 7 6 6 6 6 5 5 5 5 4 4 4 3 3 3 3 2 2 2 2 2 2 1 1 1
4 5 6 7 8 9 9 9 9 9 9 8 8 8 8 7 7 7 7 7 6 6 6 5 5 5 5 5 4 4 3 3 3 3 2 2 2 2 2 2 1 1 1 1
3 4 5 7 8 9 9 9 9 9 8 8 8 8 7 7 7 7 6 6 6 6 5 5 5 5 5 4 4 4 3 3 3 2 2 2 2 2 1 1 1 1 0 0
3 4 5 7 8 9 9 8 8 8 8 8 7 7 7 7 7 6 6 6 6 5 5 5 5 5 4 4 4 3 3 3 3 2 2 2 1 1 1 1 0 -0 -0 -1
5 6 5 7 8 8 8 8 8 7 7 7 7 7 6 6 6 6 6 6 5 5 5 5 5 4 4 4 3 3 3 3 2 2 2 1 1 1 0 0 -0 -1 -1 -1
7 7 7 7 7 7 7 7 7 7 7 7 7 6 6 6 6 6 6 5 5 5 5 5 4 4 4 3 3 3 3 3 2 2 1 1 1 1 0 -0 -1 -1 -1 -1
6 6 5 6 6 6 6 6 6 6 6 6 6 6 6 5 5 5 5 5 5 5 5 4 4 4 4 3 3 3 3 2 2 2 1 1 0 0 -0 -1 -1 -1 -1 -2
5 5 5 5 5 5 5 5 5 5 6 5 5 5 5 5 5 5 5 4 4 4 4 4 4 4 3 3 3 3 2 2 2 1 1 0 0 -0 -1 -1 -1 -1 -2 -2
4 4 4 4 4 4 5 5 5 5 5 5 5 5 5 4 4 4 4 4 4 4 4 4 4 4 3 3 2 2 2 1 1 1 0 -0 -0 -1 -1 -1 -2 -2 -2 -2
3 3 3 3 4 4 4 4 4 4 4 4 4 4 4 4 4 4 4 4 4 4 4 3 3 3 3 2 2 2 2 1 1 0 -0 -0 -1 -1 -1 -2 -2 -2 -3 -3
3 3 3 3 3 3 4 4 4 4 4 4 4 4 4 4 4 4 4 3 3 3 3 3 3 3 2 2 2 1 1 1 0 0 -0 -1 -1 -1 -2 -2 -2 -3 -3 -3
4 4 3 3 3 3 4 4 4 4 4 4 4 4 4 4 3 3 3 3 3 3 3 3 3 2 2 2 1 1 1 0 -0 -0 -1 -1 -2 -2 -2 -2 -3 -3 -3 -4
4 4 4 4 4 3 3 4 4 4 4 3 3 3 3 3 3 3 3 3 3 3 3 2 2 2 2 1 1 1 0 -0 -0 -1 -1 -1 -2 -2 -2 -3 -3 -3 -4 -4
4 4 3 3 3 3 3 3 3 3 3 3 3 3 3 3 3 2 2 2 3 2 2 2 2 2 1 1 1 0 -0 -0 -1 -1 -1 -2 -2 -2 -3 -3 -3 -4 -4 -4
4 4 3 3 3 3 3 3 3 3 3 3 3 3 2 2 2 2 2 2 2 2 2 2 1 1 1 1 0 -0 -0 -1 -1 -1 -2 -2 -2 -3 -3 -3 -4 -4 -4 -5
3 3 3 3 3 3 3 3 3 3 3 3 3 2 2 2 2 2 2 2 2 1 1 1 1 1 0 0 -0 -0 -1 -1 -1 -2 -2 -2 -3 -3 -4 -4 -4 -5 -5 -5
3 3 3 3 2 3 3 3 3 2 2 2 2 2 2 2 2 2 1 1 1 1 1 1 0 0 -0 -0 -1 -1 -1 -1 -2 -2 -3 -3 -3 -4 -4 -5 -5 -5 -5 -6
2 2 2 2 2 2 2 2 2 2 2 2 2 2 2 1 1 1 1 1 1 0 0 0 -0 -0 -1 -1 -1 -1 -2 -2 -2 -3 -3 -3 -4 -4 -5 -5 -5 -5 -6 -6
2 2 2 2 2 2 2 2 2 2 1 1 1 1 1 1 1 1 1 0 0 0 0 -0 -0 -1 -1 -1 -1 -2 -2 -3 -3 -3 -4 -4 -4 -5 -5 -5 -5 -6 -6 -6
1 1 1 2 2 2 1 1 1 1 1 1 1 1 1 1 0 0 0 0 -0 -0 -0 -1 -1 -1 -1 -2 -2 -2 -3 -3 -3 -4 -4 -4 -5 -5 -5 -5 -6 -6 -6 -6
Wind_Speed
10 11 8 10 12 10 11 10 10 9 10 14 10 9 8 7 6 6 6 6 5 4 4 3 2 2 1 2 2 1 1 2 1 2 2 2 3 2 2 2 2 1 2 2
6 7 8 11 14 13 13 12 14 13 15 13 8 6 6 7 7 7 7 7 6 5 4 4 3 2 1 1 1 1 1 0 1 1 2 2 2 2 2 2 2 2 2 2
5 7 7 9 11 12 8 9 10 14 13 7 5 7 8 8 8 9 8 7 7 6 6 5 4 3 2 2 1 0 0 1 1 1 1 1 2 2 2 2 2 3 2 2
4 6 6 8 3 6 8 10 12 11 9 8 9 8 7 8 9 9 8 7 7 6 6 5 4 3 2 1 1 1 0 1 1 0 1 1 2 2 2 2 2 2 2 2
2 5 10 10 5 5 6 8 10 13 11 8 5 2 5 7 8 9 9 7 7 6 6 5 4 4 3 2 1 1 0 1 1 0 1 1 1 1 1 1 2 2 2 2
3 4 7 7 2 2 2 7 6 8 10 7 4 3 7 6 6 6 6 5 5 5 4 5 5 4 4 3 2 2 2 2 1 0 1 1 0 0 1 1 1 2 3 3
8 7 10 8 3 3 3 7 3 4 6 6 8 8 4 3 4 5 5 5 5 5 5 6 5 5 5 4 5 4 3 2 1 1 1 1 0 1 1 1 2 2 2 2
7 8 10 5 6 7 9 4 3 4 5 7 8 6 5 5 5 5 5 5 6 5 5 5 6 7 6 6 5 3 2 2 2 1 1 1 1 1 1 2 2 1 1 2
11 12 7 6 9 7 5 6 6 6 6 7 7 7 7 6 6 6 6 6 6 6 6 5 6 7 8 7 5 4 3 3 2 2 1 1 2 1 1 1 1 0 0 1
8 13 11 10 10 9 8 10 9 8 7 7 8 8 8 7 6 6 6 6 6 6 6 6 7 7 8 6 5 5 5 4 3 3 2 2 1 1 2 2 1 1 1 1
10 11 9 10 10 11 10 9 9 8 7 8 9 9 8 8 7 7 7 6 6 7 8 8 7 7 7 6 6 6 6 5 4 4 3 3 2 2 3 3 3 3 2 2
13 10 8 9 7 7 8 10 10 9 9 8 8 9 8 8 7 7 7 6 6 7 8 7 7 7 7 6 7 7 6 5 5 4 3 3 2 1 2 2 3 3 2 2
15 12 11 12 11 9 9 10 10 10 10 9 8 8 8 7 7 7 7 7 8 9 8 7 7 7 7 7 8 8 7 6 5 5 4 4 4 3 2 2 2 3 3 3
15 13 14 14 13 11 11 11 9 8 8 8 8 7 7 7 6 7 9 9 8 7 7 7 8 8 7 7 8 8 7 7 6 5 5 5 5 4 4 3 2 2 3 4
15 14 15 12 11 10 9 7 8 8 8 8 7 7 7 8 9 9 8 6 6 7 7 7 8 8 6 7 8 8 7 5 5 5 5 5 4 4 4 4 3 2 2 2
11 11 12 13 13 12 10 9 10 10 9 8 8 8 8 8 8 7 6 6 6 8 8 8 8 7 6 7 7 6 6 8 7 5 5 5 4 4 4 4 4 3 3 3
12 13 12 12 12 12 11 11 11 10 9 9 9 8 6 6 6 7 7 7 7 8 7 8 8 6 6 7 7 6 5 6 8 5 5 5 5 5 5 4 4 4 4 4
14 15 14 12 11 11 10 9 9 10 9 9 7 6 7 8 8 8 7 5 5 5 6 7 6 5 6 7 6 5 5 5 5 5 5 5 5 5 5 5 5 5 3 4
11 12 12 11 11 9 9 8 8 9 8 6 7 8 8 8 7 6 5 5 6 7 6 6 7 6 6 7 7 5 5 5 5 5 5 6 6 4 5 5 4 4 4 3
8 8 8 8 8 7 7 7 7 7 6 6 6 6 7 7 6 6 6 7 7 6 5 5 6 6 6 7 7 5 6 6 6 5 5 5 5 5 5 5 5 4 4 4
8 8 7 7 7 6 6 6 6 6 6 6 7 8 7 6 5 5 5 6 6 5 5 7 5 5 5 6 7 5 6 6 6 6 6 5 5 5 5 5 4 4 4 4
6 6 7 6 6 6 5 4 5 6 5 6 6 6 6 6 6 5 7 6 5 6 5 4 4 6 7 7 5 5 6 6 5 5 5 5 5 5 5 5 5 4 4 4
6 6 6 6 6 6 5 4 5 5 6 7 7 7 7 6 5 5 6 5 4 7 5 4 6 8 9 6 5 5 6 6 5 5 5 5 5 5 5 5 5 4 4 4
7 6 6 6 4 4 6 6 5 5 6 6 7 7 6 5 5 6 5 5 7 7 5 6 9 9 8 5 5 5 5 5 5 5 5 5 5 4 5 5 5 4 4 5
8 7 6 5 6 6 7 5 4 5 5 5 6 6 6 5 5 5 4 5 7 7 4 6 9 9 6 5 5 5 5 5 5 5 5 5 5 5 5 5 5 4 4 4
7 7 7 7 7 6 5 4 4 5 4 5 5 5 4 4 5 4 4 5 6 6 5 4 5 6 5 5 5 5 5 5 5 5 5 5 5 5 5 5 5 5 5 4
7 6 6 6 6 6 5 5 6 6 6 6 6 5 4 4 4 5 5 4 5 4 4 4 4 5 5 5 5 5 5 5 5 5 5 5 5 5 5 6 5 4 4 4
Wind_Direction
253 258 254 249 249 230 218 216 224 245 250 261 254 241 240 238 234 234 237 234 231 232 239 250 266 288 305 323 337 8 50 52 23 14 30 36 34 28 27 33 34 30 45 36
282 268 266 263 251 235 229 226 234 253 266 259 254 235 234 233 225 229 233 233 232 226 220 225 233 244 261 285 307 22 76 26 355 32 41 34 23 25 30 29 27 36 40 31
283 307 317 274 242 218 214 214 209 233 245 258 255 240 232 226 222 226 229 228 223 218 214 216 216 214 222 244 265 104 80 359 2 37 46 23 32 43 41 38 42 40 34 38
292 335 266 245 246 203 219 236 219 231 245 238 238 243 236 219 215 225 224 221 217 211 211 211 203 196 197 184 160 154 137 349 352 59 58 35 50 55 35 36 51 45 34 28
263 286 280 287 260 200 209 264 230 230 242 245 245 279 273 229 213 216 215 211 209 206 201 195 194 188 169 165 161 160 236 293 307 292 113 63 42 22 25 44 43 37 36 42
219 252 257 256 257 177 109 281 250 215 229 226 162 237 262 227 209 215 211 200 199 193 185 190 196 174 167 184 186 213 226 240 258 198 148 155 184 3 34 62 51 46 40 34
222 244 267 259 240 131 193 252 261 206 219 203 203 224 247 218 210 209 206 201 188 183 192 204 191 171 184 199 216 223 210 197 188 182 174 173 138 69 77 76 66 53 39 18
196 221 254 232 158 193 227 270 255 239 225 216 229 241 236 227 222 212 206 202 191 190 207 207 187 181 196 216 223 204 185 184 196 197 181 146 140 117 101 102 90 57 35 9
204 223 243 209 212 233 232 244 246 238 237 223 227 234 231 231 228 221 213 207 199 198 209 213 198 191 205 220 203 184 181 194 204 198 189 166 157 155 120 117 130 159 108 332
248 257 256 254 253 257 245 241 245 238 235 221 226 231 231 232 229 225 220 213 204 199 210 222 214 206 214 210 186 180 191 201 198 193 197 186 173 172 170 185 195 209 221 269
253 266 281 267 247 250 252 250 253 248 235 227 226 233 230 232 230 226 223 217 205 206 215 224 218 215 214 200 182 188 196 200 199 197 193 194 196 203 204 213 202 202 215 220
246 237 232 256 250 247 249 251 245 242 245 236 223 231 232 233 230 224 223 217 214 216 221 224 217 218 213 197 187 190 200 204 204 200 196 192 193 234 248 229 238 234 230 229
247 256 250 260 264 254 250 250 242 232 234 240 235 227 228 234 231 224 223 218 219 221 222 220 216 220 214 196 191 196 204 205 202 198 196 196 195 201 227 265 261 253 249 253
249 256 262 261 260 257 252 250 244 240 237 236 236 231 227 231 233 227 226 224 223 220 219 217 216 221 212 195 195 202 205 206 201 200 199 198 200 204 205 210 234 262 268 265
248 242 250 262 263 259 253 245 240 243 243 243 235 231 227 227 232 233 232 224 216 218 222 218 219 223 204 193 197 202 202 204 201 197 197 198 197 197 203 211 221 233 253 271
260 257 255 258 260 259 251 240 239 244 241 239 236 235 232 231 235 237 230 211 208 221 224 221 224 221 196 194 198 202 207 207 196 194 194 196 196 197 204 211 218 223 231 236
261 265 261 259 258 257 249 241 239 243 239 235 236 236 233 233 239 239 233 222 220 226 224 221 225 213 196 195 195 199 201 204 199 196 198 199 199 202 205 209 217 225 232 232
246 252 255 256 258 258 256 247 241 239 236 235 230 224 222 224 231 236 233 227 229 239 234 223 215 202 197 197 196 193 192 195 196 198 198 200 203 203 203 208 216 226 235 239
255 257 259 257 253 251 252 250 244 239 235 224 217 223 227 229 230 230 224 217 222 236 238 216 203 197 200 202 192 188 188 192 196 196 194 204 205 200 203 210 218 222 223 224
273 271 268 266 260 250 251 251 244 239 229 215 217 226 233 236 227 221 218 227 229 226 217 204 200 201 201 199 189 185 188 192 195 195 192 195 199 203 206 212 217 220 222 223
287 284 279 272 269 262 253 246 237 237 230 213 215 226 232 235 222 212 216 242 247 220 207 202 198 201 197 193 188 184 188 192 195 195 195 198 201 205 208 212 216 218 220 221
287 287 284 277 271 273 267 247 231 229 227 224 225 225 226 230 223 222 225 232 235 210 199 200 200 202 197 191 185 185 189 192 194 193 196 198 201 206 210 212 215 217 218 218
282 280 280 276 268 269 275 257 233 223 224 225 223 220 222 223 213 215 241 231 212 207 201 206 207 205 200 188 183 187 191 193 195 197 200 201 203 205 207 209 211 213 215 218
279 278 276 276 271 266 266 261 246 237 234 235 231 224 218 221 231 229 230 219 207 207 206 208 207 206 198 186 185 189 193 195 196 196 197 198 200 200 203 206 209 212 214 217
268 270 269 262 258 258 257 256 253 248 242 244 243 235 223 214 223 230 213 212 212 209 208 210 209 206 194 184 190 194 195 198 196 191 193 196 198 199 203 204 207 210 214 218
258 260 260 253 249 252 248 239 240 242 235 244 250 237 224 217 216 218 213 209 210 207 202 202 201 197 190 190 193 193 193 198 202 201 197 199 199 199 202 205 208 211 214 219
255 255 258 264 259 245 238 234 238 241 232 231 242 235 217 208 205 207 207 205 205 204 202 199 195 191 189 189 189 191 191 191 192 194 195 196 197 200 202 204 208 210 212 216
Height
1513 1508 1507 1505 1502 1502 1504 1503 1503 1492 1486 1475 1473 1472 1471 1471 1470 1470 1469 1469 1468 1467 1466 1465 1463 1462 1460 1458 1457 1455 1454 1453 1452 1451 1450 1449 1448 1448 1447 1446 1445 1445 1444 1444
1512 1504 1503 1500 1493 1492 1493 1492 1490 1486 1479 1467 1467 1468 1467 1467 1467 1466 1466 1466 1465 1465 1464 1463 1462 1460 1459 1457 1456 1455 1453 1452 1451 1450 1449 1449 1448 1447 1446 1445 1444 1444 1443 1442
1514 1507 1501 1495 1481 1481 1481 1478 1479 1478 1469 1464 1465 1464 1463 1463 1463 1462 1462 1462 1462 1462 1461 1461 1460 1459 1457 1456 1455 1454 1453 1451 1450 1449 1448 1448 1447 1446 1445 1444 1443 1442 1441 1441
1516 1511 1501 1479 1470 1471 1472 1469 1468 1465 1462 1461 1460 1459 1459 1459 1459 1458 1459 1459 1459 1459 1459 1459 1458 1457 1456 1455 1454 1452 1451 1450 1449 1448 1447 1446 1445 1445 1444 1443 1442 1441 1440 1439
1516 1513 1497 1476 1468 1467 1469 1465 1459 1459 1457 1457 1458 1458 1456 1455 1455 1455 1455 1456 1456 1456 1456 1456 1456 1455 1454 1453 1452 1451 1450 1449 1448 1447 1446 1445 1444 1443 1442 1441 1440 1439 1438 1437
1514 1509 1493 1470 1464 1463 1466 1464 1453 1453 1453 1454 1456 1460 1453 1451 1451 1452 1452 1453 1453 1453 1453 1453 1453 1453 1452 1451 1450 1449 1449 1448 1447 1446 1445 1444 1443 1442 1441 1440 1439 1438 1437 1435
1510 1506 1486 1467 1463 1464 1470 1460 1451 1450 1450 1451 1452 1451 1449 1448 1449 1449 1449 1449 1450 1450 1450 1450 1450 1450 1449 1449 1448 1447 1447 1446 1445 1445 1444 1443 1442 1441 1440 1439 1438 1436 1435 1434
1503 1502 1483 1460 1461 1463 1457 1451 1450 1449 1449 1448 1447 1447 1446 1446 1445 1446 1446 1446 1446 1446 1446 1447 1447 1446 1446 1446 1446 1446 1445 1444 1443 1443 1442 1441 1440 1439 1438 1437 1436 1435 1434 1432
1482 1471 1457 1454 1452 1450 1450 1449 1447 1446 1446 1445 1444 1443 1443 1442 1442 1442 1442 1442 1442 1442 1442 1443 1443 1443 1443 1443 1443 1443 1442 1442 1441 1441 1440 1439 1438 1437 1436 1435 1434 1433 1432 1431
1470 1457 1452 1450 1448 1447 1446 1444 1443 1443 1442 1441 1440 1439 1439 1438 1438 1438 1438 1438 1438 1438 1438 1438 1439 1439 1439 1439 1439 1439 1439 1439 1438 1438 1437 1436 1436 1435 1434 1433 1432 1431 1430 1429
1461 1450 1447 1442 1441 1441 1440 1439 1438 1438 1437 1436 1435 1434 1434 1433 1433 1433 1433 1433 1433 1433 1433 1433 1434 1434 1435 1435 1435 1435 1435 1435 1434 1434 1434 1433 1433 1432 1431 1431 1430 1429 1428 1427
1448 1441 1442 1436 1436 1436 1435 1433 1433 1432 1430 1430 1430 1429 1428 1428 1427 1427 1428 1428 1428 1428 1428 1428 1429 1429 1430 1430 1430 1430 1430 1430 1430 1430 1430 1430 1429 1429 1428 1428 1427 1426 1426 1425
1437 1435 1434 1431 1429 1429 1428 1427 1426 1425 1424 1423 1423 1423 1422 1422 1421 1421 1422 1422 1422 1422 1422 1423 1423 1423 1424 1425 1425 1425 1426 1426 1426 1426 1426 1426 1425 1425 1425 1425 1424 1423 1422 1421
1431 1430 1426 1423 1422 1422 1421 1420 1419 1418 1417 1417 1416 1416 1415 1415 1415 1415 1415 1415 1416 1416 1416 1417 1417 1418 1419 1420 1420 1420 1421 1421 1421 1421 1421 1421 1421 1421 1421 1420 1420 1419 1419 1418
1422 1422 1418 1416 1415 1414 1413 1413 1411 1410 1410 1410 1410 1409 1409 1408 1408 1408 1409 1409 1410 1410 1410 1411 1411 1412 1413 1414 1414 1415 1415 1415 1416 1416 1417 1417 1417 1417 1417 1416 1416 1415 1415 1414
1413 1412 1411 1409 1407 1406 1405 1405 1404 1403 1403 1403 1403 1403 1403 1403 1402 1402 1403 1403 1403 1403 1404 1405 1405 1406 1407 1408 1408 1409 1410 1410 1411 1411 1411 1412 1412 1412 1412 1412 1411 1411 1410 1410
1407 1403 1401 1400 1399 1398 1397 1397 1397 1397 1397 1397 1397 1397 1397 1396 1396 1396 1397 1397 1398 1398 1399 1399 1400 1401 1402 1402 1403 1403 1404 1405 1405 1406 1406 1407 1407 1407 1407 1407 1407 1406 1406 1406
1398 1396 1395 1394 1392 1391 1391 1390 1390 1390 1390 1391 1391 1391 1391 1390 1390 1391 1391 1392 1392 1393 1393 1394 1395 1395 1396 1396 1397 1398 1398 1399 1400 1401 1401 1402 1402 1402 1402 1402 1402 1402 1401 1401
1391 1390 1388 1387 1386 1386 1385 1384 1384 1384 1385 1385 1385 1385 1385 1385 1385 1386 1386 1387 1387 1387 1388 1389 1390 1390 1390 1391 1392 1392 1393 1394 1395 1395 1396 1397 1397 1397 1397 1397 1397 1397 1397 1397
1386 1385 1383 1382 1381 1380 1379 1379 1378 1378 1379 1379 1380 1380 1380 1380 1381 1381 1381 1381 1382 1382 1383 1384 1384 1385 1385 1386 1386 1387 1388 1389 1389 1390 1391 1391 1392 1392 1393 1393 1392 1392 1392 1392
1383 1381 1379 1377 1376 1376 1375 1374 1373 1373 1374 1374 1374 1374 1375 1375 1376 1376 1376 1377 1378 1378 1378 1379 1379 1380 1380 1380 1381 1382 1382 1383 1384 1385 1386 1387 1387 1387 1388 1388 1388 1387 1387 1387
1380 1378 1376 1374 1373 1372 1371 1370 1370 1369 1369 1369 1370 1370 1370 1370 1371 1371 1372 1372 1373 1373 1374 1374 1375 1375 1375 1376 1376 1377 1378 1379 1379 1380 1381 1382 1382 1382 1383 1383 1383 1383 1383 1382
1377 1375 1374 1372 1370 1369 1367 1367 1366 1366 1365 1365 1365 1365 1365 1366 1366 1366 1367 1368 1368 1368 1369 1369 1370 1370 1371 1371 1372 1372 1373 1374 1375 1376 1376 1377 1377 1378 1378 1378 1378 1378 1378 1378
1374 1372 1371 1369 1367 1365 1364 1363 1362 1362 1362 1361 1361 1361 1361 1361 1361 1362 1362 1363 1363 1363 1364 1364 1365 1365 1366 1366 1367 1368 1368 1369 1370 1371 1372 1372 1373 1373 1373 1373 1373 1373 1373 1373
1370 1368 1366 1364 1363 1361 1360 1359 1358 1358 1357 1357 1356 1357 1357 1357 1357 1357 1357 1358 1358 1358 1359 1360 1360 1361 1361 1361 1362 1363 1364 1365 1365 1366 1367 1367 1368 1368 1369 1369 1369 1369 1369 1369
1364 1363 1361 1359 1358 1357 1356 1355 1353 1353 1352 1352 1351 1352 1352 1352 1352 1352 1352 1353 1353 1353 1354 1355 1355 1355 1356 1357 1358 1358 1359 1360 1361 1361 1362 1363 1363 1364 1364 1364 1364 1364 1364 1364
1357 1356 1354 1353 1352 1351 1350 1349 1348 1347 1347 1347 1346 1346 1347 1347 1347 1347 1347 1348 1348 1348 1349 1350 1350 1351 1351 1352 1353 1354 1355 1355 1356 1357 1358 1358 1359 1359 1360 1360 1360 1360 1360 1360